小惑星A/2019 Y5

A/2019 Y5

English version
Home page
Updated on April 17, 2020

---------------------------------------------------------------------

・ プロフィール

発見日 2019年12月28日
発見光度 21.47等
発見者 Pan-STARRS 1 telescope (Haleakala)

・ 軌道要素

Epoch 2019 Aug. 25.0 TT = JDT 2458720.5
T 2019 Aug. 18.16048 TT                                 Rudenko
q   4.9145198            (2000.0)            P               Q
z  +0.0013400      Peri.  303.50239     +0.42318369     +0.46196418
 +/-0.0000030      Node    51.77143     +0.66793553     +0.42218578
e   0.9934144      Incl.   82.84186     -0.61219089     +0.77996683
H   14.0
From 47 observations 2019 Sept. 11-2020 Feb. 26, mean residual 0".4.

・ 光度変化

        H = 14.0  G = 0.15

---------------------------------------------------------------------

軌道要素はM.P.E.C. 2020-E26に掲載されたものです。
光度グラフはComet for Windowsで作成したものです。

---------------------------------------------------------------------

Copyright(C) Seiichi Yoshida (comet@aerith.net). All rights reserved.